Starlink 33671

operational
NORAD ID: 63320 Int'l Des: 2025-057 Owner: SPXS Country: US Constellation: starlink
LEOCIRCULAR

Starlink 33671について

説明を読み込み中...

リアルタイム位置

3D地球を読み込み中...

次回通過

高度履歴

Altitude vs Time

uPlot chart will show altitude changes over time

軌道要素

1 63320U 25057P 25259.45616757 .00029688 00000-0 10840-2 0 9995
2 63320 43.0033 284.1948 0001405 269.9414 90.1276 15.27581955 29251
Epoch: Sep 16, 2025 • Age: 10 hours

現在のステータス

高度 482.3 km
速度 7.63 km/s
衛星直下点 6.22°N, 142.45°E
打ち上げ日 Mar 18, 2025
運用期間 0.4 years
タイプ internet

技術仕様

分類 Payload
質量 575.00 kg
乾燥質量 530.00 kg
総質量 575.00 kg
長さ 0.30 m
直径 4.10 m
スパン 29.00 m
形状 Box + pan
製造者 SPXS
バスタイプ Starlink V2MO
フェーズステータス In Orbit
所有者/国 SPXS/US

大規模コンステレーション

Loading constellations...